Details From KHLX - TWIN COUNTY
To KLWB - GREENBRIER VALLEY
Flight Number -
Tags decoded
Created
Modified
Stats Distance 70 nm / 129 km
Max Altitude 0 ft / 0 m
Waypoints 5
Social Downloads 3
Likes 0
Share VATSIM

Download

Looking for another format? Having issues loading an existing format? Contact us
Advertisement - Login to hide

Notes

Requested: KHLX PSK KPSK LWB KLWB

Route

KHLX PSK KPSK LWB KLWB

ID Type Via Altitude Latitude Longitude Leg Dist Tot Dist Heading (true) Name
O KHLX APT - 0 ft / 0 m 36.76611˚ -80.82357˚ - 0 nm - TWIN COUNTY
PSK VOR - 0 ft / 0 m 37.08769˚ -80.71289˚ 20 nm 20 nm 15° / 15° PULASKI VORTAC
KPSK APT - 0 ft / 0 m 37.13735˚ -80.67848˚ 3 nm 23 nm 29° / 29° NEW RIVER VALLEY
LWB VOR - 0 ft / 0 m 37.86381˚ -80.39203˚ 45 nm 69 nm 17° / 17° GREENBRIER VOR-DME
O KLWB APT - 0 ft / 0 m 37.85831˚ -80.39948˚ 0 nm 69 nm 227° / 227° GREENBRIER VALLEY

Altitude Profile

Advertisement - Login to hide

KHLX

Details ICAO KHLX
Name TWIN COUNTY
Region United States
Timezone America/New_York (UTC-4.0)
Stats Elevation 2,693 ft / 821 m (AMSL)
Location 36.766114° -80.823567°
Runways 1
Magnetic Variation 8.056° W

METAR

KHLX 241935Z AUTO 13004KT 10SM BKN029 BKN036 24/17 A3022 RMK AO2 LTG DSNT S T02370172

Decode

TAF

Not found

Departure Runways

ID Width Length Bearing (true) Bearing (mag) Surface Threshold Offset Overrun Length
01 75 ft / 23 m 4,213 ft / 1,284 m 9.96° 18.02° Asphalt 0 ft / 0 m 0 ft / 0 m
19 75 ft / 23 m 4,213 ft / 1,284 m 189.96° 198.02° Asphalt 0 ft / 0 m 0 ft / 0 m

KLWB

Details ICAO KLWB (LWB)
Name GREENBRIER VALLEY
Region United States
Timezone America/New_York (UTC-4.0)
Stats Elevation 2,302 ft / 702 m (AMSL)
Location 37.858307° -80.399482°
Runways 1
Magnetic Variation 8.532° W

METAR

KLWB 241935Z AUTO 10006KT 10SM SCT050 25/13 A3021 RMK AO2 T02540131

Decode

TAF

TAF KLWB 241722Z 2418/2518 VRB03KT P6SM SCT045 FM250300 00000KT P6SM SKC FM250600 00000KT 3SM BR OVC001 FM251300 18003KT P6SM FEW050

Decode

Destination Runways

ID Width Length Bearing (true) Bearing (mag) Surface Threshold Offset Overrun Length
04 151 ft / 46 m 7,007 ft / 2,136 m 35.18° 43.71° Asphalt 0 ft / 0 m 0 ft / 0 m
22 151 ft / 46 m 7,007 ft / 2,136 m 215.19° 223.72° Asphalt 0 ft / 0 m 0 ft / 0 m

Approach Navaids

Runway Type Ident Frequency Range Bearing (true) Bearing (mag) Slope Elevation
04 Localiser ILWB 110.35 MHz 18 nm / 33 km 38.22° 46.75° - 2,299 ft / 701 m (AMSL)
04 Glidescope ILWB 110.35 MHz 10 nm / 19 km 35.19° 43.72° 3.00° 2,286 ft / 697 m (AMSL)